N6EQ Weather Reports


Display with metric or nautical units.
time (UTC)temp
F
wind
direction
speed
MPH
gust
MPH
rain 1hr
in
rain 24hr
in
rain mn
in
humidity
%
barometer
mb
20260905200056 97 235 7.0 22.0 0.00 0.00 0.00 16 951.6
20260905194547 97 195 9.0 20.0 0.00 0.00 0.00 16 951.8
20260905193047 96 210 11.0 18.0 0.00 0.00 0.00 16 951.9
20260905191546 96 161 7.0 19.0 0.00 0.00 0.00 16 952.0
20260905190043 96 11.0 16.0 0.00 0.00 0.00 16 952.0
20260905184541 95 231 7.0 15.0 0.00 0.00 0.00 16 952.2
20260905183038 94 3.0 14.0 0.00 0.00 0.00 16 952.3
20260905181552 93 212 1.0 13.0 0.00 0.00 0.00 16 952.5
20260905180035 93 226 4.0 18.0 0.00 0.00 0.00 17 952.5
20260905174541 92 223 2.0 14.0 0.00 0.00 0.00 17 952.4
20260905173033 92 214 4.0 13.0 0.00 0.00 0.00 17 952.4
20260905171538 91 225 0.0 5.0 0.00 0.00 0.00 18 952.4
20260905170027 89 217 0.0 6.0 0.00 0.00 0.00 18 952.5
20260905164530 88 207 0.0 5.0 0.00 0.00 0.00 18 952.4
20260905163023 87 233 0.0 5.0 0.00 0.00 0.00 18 952.4
20260905161523 87 0.0 5.0 0.00 0.00 0.00 18 952.4
20260905160032 87 241 0.0 0.0 0.00 0.00 0.00 17 952.3
20260905154521 85 0.0 0.0 0.00 0.00 0.00 18 952.3
20260905153022 85 0.0 0.0 0.00 0.00 0.00 18 952.1
20260905151517 85 241 0.0 0.0 0.00 0.00 0.00 17 952.0
20260905150015 86 209 0.0 0.0 0.00 0.00 0.00 17 952.1
20260905144514 85 95 0.0 0.0 0.00 0.00 0.00 17 951.9
20260905143013 83 92 0.0 0.0 0.00 0.00 0.00 18 951.9
20260905141510 82 117 0.0 0.0 0.00 0.00 0.00 18 951.7
20260905140009 81 119 0.0 0.0 0.00 0.00 0.00 18 951.4
20260905134506 81 119 0.0 0.0 0.00 0.00 0.00 18 951.2
20260905133005 80 114 0.0 0.0 0.00 0.00 0.00 18 950.9
20260905131606 82 131 0.0 0.0 0.00 0.00 0.00 18 950.6
20260905130059 82 120 0.0 0.0 0.00 0.00 0.00 17 950.4
20260905124558 82 118 0.0 0.0 0.00 0.00 0.00 17 950.3
20260905123055 81 120 0.0 0.0 0.00 0.00 0.00 17 950.2
20260905121557 82 115 0.0 0.0 0.00 0.00 0.00 17 950.1
20260905120114 82 121 0.0 0.0 0.00 0.00 0.00 17 950.2
20260905114555 82 121 0.0 0.0 0.00 0.00 0.00 17 950.2
20260905113054 81 125 0.0 0.0 0.00 0.00 0.00 18 950.2
20260905111608 81 124 0.0 0.0 0.00 0.00 0.00 17 950.2
20260905110055 81 91 0.0 0.0 0.00 0.00 0.00 16 950.1
20260905104548 82 122 0.0 0.0 0.00 0.00 0.00 16 950.2
20260905103050 82 123 0.0 0.0 0.00 0.00 0.00 16 950.2
20260905101544 83 143 0.0 0.0 0.00 0.00 0.00 16 950.1
20260905100046 83 152 0.0 0.0 0.00 0.00 0.00 15 950.0
20260905094541 83 151 0.0 0.0 0.00 0.00 0.00 15 950.1
20260905093039 83 131 0.0 0.0 0.00 0.00 0.00 15 949.9
20260905091610 83 141 0.0 0.0 0.00 0.00 0.00 14 949.9
20260905090036 84 150 0.0 0.0 0.00 0.00 0.00 14 949.8
20260905084534 85 218 0.0 0.0 0.00 0.00 0.00 14 949.9
20260905083032 85 107 0.0 0.0 0.00 0.00 0.00 14 949.9
20260905081529 85 171 0.0 0.0 0.00 0.00 0.00 14 949.8
20260905080036 86 152 0.0 0.0 0.00 0.00 0.00 13 949.8
20260905074524 88 219 0.0 0.0 0.00 0.00 0.00 13 949.7
20260905073022 88 119 0.0 3.0 0.00 0.00 0.00 12 949.5
20260905071522 87 137 0.0 0.0 0.00 0.00 0.00 13 949.5
20260905070023 88 153 0.0 0.0 0.00 0.00 0.00 13 949.5
20260905064518 89 188 0.0 2.0 0.00 0.00 0.00 13 949.4
20260905063015 89 113 0.0 1.0 0.00 0.00 0.00 12 949.4
20260905061515 90 122 0.0 1.0 0.00 0.00 0.00 12 949.3
20260905060014 90 151 0.0 5.0 0.00 0.00 0.00 12 949.3
20260905054517 90 122 0.0 6.0 0.00 0.00 0.00 12 949.2
20260905053013 90 139 0.0 3.0 0.00 0.00 0.00 11 949.1
20260905051514 90 105 0.0 2.0 0.00 0.00 0.00 11 949.1
20260905050012 90 0.0 5.0 0.00 0.00 0.00 10 949.0
20260905044511 91 2.0 11.0 0.00 0.00 0.00 10 949.0
20260905043020 92 1.0 11.0 0.00 0.00 0.00 9 948.8
20260905041509 92 3.0 13.0 0.00 0.00 0.00 9 948.7
20260905040009 92 1.0 10.0 0.00 0.00 0.00 8 948.5
20260905034508 92 156 1.0 6.0 0.00 0.00 0.00 8 948.3
20260905033007 92 217 0.0 1.0 0.00 0.00 0.00 8 948.1
20260905031507 93 137 0.0 7.0 0.00 0.00 0.00 9 947.9
20260905030008 94 134 0.0 7.0 0.00 0.00 0.00 9 947.6
20260905024506 94 198 1.0 8.0 0.00 0.00 0.00 8 947.5
20260905023006 95 164 3.0 10.0 0.00 0.00 0.00 8 947.4
20260905021505 95 161 0.0 10.0 0.00 0.00 0.00 8 947.4
20260905020006 96 188 4.0 13.0 0.00 0.00 0.00 8 947.3
20260905014503 97 136 6.0 17.0 0.00 0.00 0.00 9 947.2
20260905013002 98 147 6.0 15.0 0.00 0.00 0.00 8 947.3
20260905011501 98 149 5.0 21.0 0.00 0.00 0.00 8 947.3
20260905010001 99 131 1.0 15.0 0.00 0.00 0.00 8 947.4
20260905004600 99 166 11.0 19.0 0.00 0.00 0.00 8 947.3
20260905003100 99 229 7.0 15.0 0.00 0.00 0.00 8 947.3
20260905001606 99 188 2.0 22.0 0.00 0.00 0.00 11 947.4
20260905000112 99 151 5.0 22.0 0.00 0.00 0.00 11 947.4
20260904234601 99 160 7.0 18.0 0.00 0.00 0.00 13 947.4
20260904233118 99 215 8.0 18.0 0.00 0.00 0.00 15 947.5
20260904231605 99 198 4.0 19.0 0.00 0.00 0.00 15 947.7
20260904230058 99 214 6.0 19.0 0.00 0.00 0.00 14 947.9
20260904224558 99 205 11.0 18.0 0.00 0.00 0.00 15 948.0
20260904223119 98 213 10.0 23.0 0.00 0.00 0.00 13 948.1
20260904221555 99 196 17.0 27.0 0.00 0.00 0.00 11 948.2
20260904220052 99 176 9.0 25.0 0.00 0.00 0.00 8 948.3
20260904214551 98 204 8.0 26.0 0.00 0.00 0.00 13 948.6
20260904213049 98 173 12.0 25.0 0.00 0.00 0.00 14 948.8
20260904211549 97 221 12.0 22.0 0.00 0.00 0.00 17 948.8
20260904210058 97 14.0 26.0 0.00 0.00 0.00 18 948.9
20260904204545 97 12.0 22.0 0.00 0.00 0.00 21 949.0
20260904203047 96 153 15.0 24.0 0.00 0.00 0.00 22 949.1
20260904201543 95 20.0 29.0 0.00 0.00 0.00 21 949.2